FW3855 Weather Reports


Display with metric or nautical units.
time (UTC)temp
F
wind
direction
speed
MPH
gust
MPH
rain 1hr
in
rain 24hr
in
rain mn
in
humidity
%
barometer
mb
20260503210831 81 146 7.0 16.0 0.00 0.00 0.00 9 1012.3
20260503210331 80 161 8.0 20.0 0.00 0.00 0.00 9 1012.4
20260503205830 80 169 8.0 20.0 0.00 0.00 0.00 10 1012.3
20260503205327 80 179 6.0 20.0 0.00 0.00 0.00 10 1012.3
20260503204829 80 224 6.0 25.0 0.00 0.00 0.00 10 1012.6
20260503204328 79 118 7.0 25.0 0.00 0.00 0.00 10 1012.8
20260503202827 80 96 8.0 21.0 0.00 0.00 0.00 10 1012.8
20260503202327 80 92 7.0 21.0 0.00 0.00 0.00 11 1013.0
20260503201827 80 190 8.0 20.0 0.00 0.00 0.00 10 1013.2
20260503201334 80 158 7.0 27.0 0.00 0.00 0.00 11 1013.0
20260503200831 80 251 6.0 27.0 0.00 0.00 0.00 10 1013.2
20260503200329 80 168 4.0 15.0 0.00 0.00 0.00 12 1013.2
20260503195830 79 146 5.0 19.0 0.00 0.00 0.00 13 1013.4
20260503195327 78 49 7.0 23.0 0.00 0.00 0.00 13 1013.4
20260503194827 78 265 7.0 23.0 0.00 0.00 0.00 13 1013.4
20260503194329 80 175 7.0 17.0 0.00 0.00 0.00 12 1013.6
20260503193327 80 258 8.0 24.0 0.00 0.00 0.00 11 1013.7
20260503192327 80 203 5.0 14.0 0.00 0.00 0.00 13 1013.7
20260503191829 80 91 5.0 21.0 0.00 0.00 0.00 12 1013.8
20260503191326 79 163 7.0 21.0 0.00 0.00 0.00 12 1014.1
20260503190826 79 180 6.0 16.0 0.00 0.00 0.00 11 1014.1
20260503190327 80 173 6.0 18.0 0.00 0.00 0.00 11 1014.2
20260503185326 79 240 4.0 16.0 0.00 0.00 0.00 12 1014.2
20260503184829 80 202 5.0 13.0 0.00 0.00 0.00 12 1014.2
20260503184327 80 261 5.0 19.0 0.00 0.00 0.00 11 1014.4
20260503183827 79 142 5.0 19.0 0.00 0.00 0.00 11 1014.4
20260503183329 78 113 6.0 23.0 0.00 0.00 0.00 13 1014.5
20260503182827 78 56 7.0 23.0 0.00 0.00 0.00 13 1014.5
20260503182328 78 72 5.0 19.0 0.00 0.00 0.00 13 1014.5
20260503181826 78 182 5.0 11.0 0.00 0.00 0.00 12 1014.4
20260503181327 79 107 5.0 11.0 0.00 0.00 0.00 11 1014.5
20260503180826 79 173 4.0 11.0 0.00 0.00 0.00 11 1014.5
20260503180324 79 1 4.0 13.0 0.00 0.00 0.00 11 1014.5
20260503175322 78 179 4.0 14.0 0.00 0.00 0.00 11 1014.8
20260503174314 79 195 3.0 15.0 0.00 0.00 0.00 11 1014.6
20260503173811 78 147 3.0 10.0 0.00 0.00 0.00 11 1014.9
20260503172309 77 193 5.0 19.0 0.00 0.00 0.00 11 1015.0
20260503171806 77 121 5.0 12.0 0.00 0.00 0.00 12 1015.1
20260503171306 77 67 5.0 13.0 0.00 0.00 0.00 11 1015.1
20260503170806 76 86 4.0 13.0 0.00 0.00 0.00 12 1015.1
20260503150622 70 89 5.0 12.0 0.00 0.00 0.00 12 1015.9
20260503150116 70 107 6.0 13.0 0.00 0.00 0.00 12 1015.8
20260503131409 63 148 3.0 5.0 0.00 0.00 0.00 16 1015.1
20260503130903 62 157 3.0 6.0 0.00 0.00 0.00 16 1015.0
20260503130358 62 165 3.0 6.0 0.00 0.00 0.00 16 1015.0
20260503110750 61 186 3.0 5.0 0.00 0.00 0.00 14 1015.4
20260503110245 62 173 2.0 4.0 0.00 0.00 0.00 14 1015.6
20260503090207 63 187 3.0 4.0 0.00 0.00 0.00 8 1015.6
20260503081206 58 180 2.0 3.0 0.00 0.00 0.00 10 1016.2
20260503080707 58 181 1.0 2.0 0.00 0.00 0.00 11 1016.4
20260503080205 58 171 1.0 2.0 0.00 0.00 0.00 11 1016.4
20260503072706 60 203 2.0 3.0 0.00 0.00 0.00 9 1016.6
20260503071703 60 175 2.0 3.0 0.00 0.00 0.00 9 1016.6
20260503071201 59 175 1.0 3.0 0.00 0.00 0.00 10 1016.7
20260503070702 58 193 0.0 2.0 0.00 0.00 0.00 10 1016.6
20260503060115 64 221 1.0 5.0 0.00 0.00 0.00 7 1016.6
20260503054612 65 176 2.0 4.0 0.00 0.00 0.00 6 1016.6
20260503054112 64 160 2.0 4.0 0.00 0.00 0.00 7 1016.5
20260503053611 65 167 2.0 5.0 0.00 0.00 0.00 6 1016.5
20260503053111 65 195 2.0 5.0 0.00 0.00 0.00 6 1016.5
20260503052610 65 216 2.0 5.0 0.00 0.00 0.00 6 1016.6
20260503051615 65 195 3.0 5.0 0.00 0.00 0.00 6 1016.6
20260503050609 65 193 2.0 5.0 0.00 0.00 0.00 6 1016.5
20260503050112 65 207 2.0 5.0 0.00 0.00 0.00 6 1016.6
20260503045606 66 224 3.0 5.0 0.00 0.00 0.00 6 1016.6
20260503045110 66 229 3.0 6.0 0.00 0.00 0.00 6 1016.5
20260503044606 66 195 3.0 6.0 0.00 0.00 0.00 6 1016.5
20260503043600 66 198 2.0 5.0 0.00 0.00 0.00 6 1016.4
20260503043057 66 194 2.0 5.0 0.00 0.00 0.00 6 1016.4
20260503042551 66 195 2.0 4.0 0.00 0.00 0.00 6 1016.2
20260503042042 66 201 2.0 5.0 0.00 0.00 0.00 6 1016.2
20260503041536 67 205 2.0 5.0 0.00 0.00 0.00 5 1016.2
20260503041030 67 173 2.0 5.0 0.00 0.00 0.00 5 1016.0
20260503040524 67 199 2.0 6.0 0.00 0.00 0.00 5 1016.0
20260503035513 68 264 2.0 6.0 0.00 0.00 0.00 5 1015.9
20260503035006 69 225 3.0 6.0 0.00 0.00 0.00 5 1015.9
20260503033956 69 210 3.0 6.0 0.00 0.00 0.00 4 1015.8
20260503033448 69 215 2.0 6.0 0.00 0.00 0.00 4 1015.8
20260503032943 69 179 2.0 7.0 0.00 0.00 0.00 4 1015.8
20260503032441 69 232 2.0 7.0 0.00 0.00 0.00 4 1015.8
20260503031930 70 274 3.0 7.0 0.00 0.00 0.00 4 1015.6
20260503031427 70 266 3.0 7.0 0.00 0.00 0.00 4 1015.6
20260503025906 71 203 3.0 9.0 0.00 0.00 0.00 3 1015.4
20260503025400 71 214 3.0 9.0 0.00 0.00 0.00 3 1015.3
20260503024854 71 243 3.0 8.0 0.00 0.00 0.00 3 1015.3
20260503024348 71 253 2.0 8.0 0.00 0.00 0.00 3 1015.2
20260503023845 71 245 1.0 4.0 0.00 0.00 0.00 4 1015.1
20260503023337 71 260 2.0 6.0 0.00 0.00 0.00 4 1015.1
20260503022830 72 217 2.0 6.0 0.00 0.00 0.00 4 1015.1
20260503022325 72 217 3.0 11.0 0.00 0.00 0.00 4 1015.1
20260503021818 72 262 4.0 11.0 0.00 0.00 0.00 3 1015.1
20260503021312 73 284 4.0 10.0 0.00 0.00 0.00 3 1015.1
20260503020807 73 275 3.0 10.0 0.00 0.00 0.00 3 1015.1
20260503020301 73 195 2.0 8.0 0.00 0.00 0.00 3 1015.0
20260503015755 73 206 3.0 9.0 0.00 0.00 0.00 3 1014.9
20260503015248 73 243 3.0 9.0 0.00 0.00 0.00 3 1015.0
20260503014746 74 293 4.0 10.0 0.00 0.00 0.00 3 1014.9
20260503014239 74 188 4.0 10.0 0.00 0.00 0.00 3 1015.0
20260503013737 74 260 4.0 10.0 0.00 0.00 0.00 3 1014.9
20260503013235 74 248 5.0 10.0 0.00 0.00 0.00 3 1014.9
20260503012742 75 278 5.0 11.0 0.00 0.00 0.00 3 1014.9
20260503012235 76 193 4.0 11.0 0.00 0.00 0.00 3 1014.8
20260503011733 76 244 2.0 9.0 0.00 0.00 0.00 2 1014.6
20260503011235 77 243 3.0 10.0 0.00 0.00 0.00 2 1014.6
20260503010733 77 235 3.0 10.0 0.00 0.00 0.00 3 1014.6
20260503010231 78 297 2.0 7.0 0.00 0.00 0.00 2 1014.8
20260503005730 78 240 4.0 8.0 0.00 0.00 0.00 2 1014.8
20260503005230 77 162 4.0 10.0 0.00 0.00 0.00 3 1014.8
20260503004731 77 266 3.0 10.0 0.00 0.00 0.00 3 1014.8
20260503004230 77 293 3.0 9.0 0.00 0.00 0.00 3 1014.8
20260503003727 77 247 4.0 10.0 0.00 0.00 0.00 3 1014.8
20260503002727 77 201 4.0 11.0 0.00 0.00 0.00 3 1014.9
20260503002227 78 215 2.0 9.0 0.00 0.00 0.00 2 1014.8
20260503001730 79 214 2.0 9.0 0.00 0.00 0.00 1 1014.9
20260503001235 79 221 2.0 9.0 0.00 0.00 0.00 1 1014.9
20260503000226 78 209 3.0 13.0 0.00 0.00 0.00 1 1014.9
20260502235721 78 203 3.0 11.0 0.00 0.00 0.00 1 1014.8
20260502235221 79 150 5.0 16.0 0.00 0.00 0.00 1 1014.6
20260502234723 80 136 5.0 16.0 0.00 0.00 0.00 1 1014.6
20260502234223 81 107 2.0 11.0 0.00 0.00 0.00 1 1014.6
20260502233721 81 269 3.0 10.0 0.00 0.00 0.00 1 1014.6
20260502233221 80 334 5.0 16.0 0.00 0.00 0.00 1 1014.8
20260502232721 80 149 4.0 16.0 0.00 0.00 0.00 1 1014.9
20260502232221 81 193 3.0 11.0 0.00 0.00 0.00 1 1014.8
20260502231721 80 107 3.0 9.0 0.00 0.00 0.00 1 1014.6
20260502231221 80 86 5.0 13.0 0.00 0.00 0.00 1 1014.9
20260502230221 80 103 4.0 14.0 0.00 0.00 0.00 1 1014.9
20260502225722 80 247 4.0 15.0 0.00 0.00 0.00 1 1014.9
20260502225220 80 133 3.0 15.0 0.00 0.00 0.00 1 1014.9
20260502224721 80 5 4.0 13.0 0.00 0.00 0.00 1 1014.9
20260502224222 80 157 5.0 16.0 0.00 0.00 0.00 1 1015.1
20260502223722 80 80 5.0 16.0 0.00 0.00 0.00 1 1015.0
20260502223226 80 216 4.0 11.0 0.00 0.00 0.00 1 1015.1
20260502222724 80 63 4.0 11.0 0.00 0.00 0.00 1 1015.3
20260502222226 80 104 4.0 14.0 0.00 0.00 0.00 1 1015.3
20260502221724 80 201 4.0 14.0 0.00 0.00 0.00 1 1015.3
20260502221224 80 90 5.0 10.0 0.00 0.00 0.00 1 1015.4
20260502220721 80 94 4.0 10.0 0.00 0.00 0.00 1 1015.6
20260502220223 79 204 3.0 8.0 0.00 0.00 0.00 1 1015.7
20260502215723 79 27 4.0 10.0 0.00 0.00 0.00 1 1015.8
20260502215221 79 110 3.0 10.0 0.00 0.00 0.00 1 1015.9
20260502213721 80 77 4.0 10.0 0.00 0.00 0.00 1 1016.2
20260502213221 80 222 3.0 10.0 0.00 0.00 0.00 1 1016.2
20260502212222 79 120 5.0 14.0 0.00 0.00 0.00 1 1016.4
20260502211722 79 82 4.0 10.0 0.00 0.00 0.00 1 1016.4
20260502211222 79 330 4.0 10.0 0.00 0.00 0.00 1 1016.5